COSMOS 2491 DEB, 45127

Orbit data source: Space-Track

COSMOS 2491 DEB, 45127 is space debris in LEO originally from a launch on Wed, 25 Dec 2013 UTC launched from the Plesetsk Missile And Space Complex (PKMTR). Debris objects in space refer to the collection of defunct objects orbiting the Earth. Examples of debris include non-operational satellites, rocket bodies, and fragments generated from explosions, collisions, or faulty payload assembly.

Loading next visibility...
Identifier
45127, 2013-076Z
Orbit
LEO
Country
Flag of CISCIS
Related business
Manufacturer
TsNIIKhM
Mission
Spacecraft
Bus & Motor
Unknown
Mass
Unknown
Launch date (UTC)
2013-12-25 (13 years ago)
Launch vehicle
Unknown
Launch site
Plesetsk Missile And Space Complex (PKMTR)
Object type
Payload
Rocket body
Debris
Shape & HBR
Unknown shape, 0.1 m
Radar Cross Section
Small (<0.1 m²)

Expand to show TLE details & history
Last TLE update: 3 weeks ago

TLE from 3 weeks ago
0 COSMOS 2491 DEB
1 45127U 13076Z   26179.54597757  .00001968  00000-0  10887-1 0  9999
2 45127  82.4483 115.8090 0041159 132.4712 227.9870 12.62435093294683
Epoch: 2026-06-28T13:06Z
TLE epoch observation values (Epoch: 2026-06-28T13:06:12.462Z)
Latitude
0.00002°
Longitude
2.61285°
Altitude
1,437.175 km
Speed
7.133 km/s
True Right ascension
07h 43m 14s
True Declination
0° 00' 00"
Sunlit
Object was in daylight at epoch
Visualization orbit readout
Latitude
Unknown
Longitude
Unknown
Altitude
Unknown
Speed
Unknown
Apparent Right ascension
Unknown
Apparent Declination
Unknown
Sunlit
N/A
Visualization observer readout
Local Sidereal Time
17:51:26
Azimuth
Unknown
Elevation
Unknown
Doppler factor
Unknown
Orbital elements
Apogee altitude
1,442.291 km
Perigee altitude
1,378.179 km
Semi-major axis
7,788.372 km
Eccentricity
0.00412
Inclination
82.4483°
RAAN
115.809°
Arg. of periapsis
132.4712°
True anomaly
227.63777°
Mean anomaly
227.987°
Eccentric anomaly
227.81227°
Mean motion
3.15772 °/min
Orbital period
114.01 mins
BSTAR
0.010887
Loading maneuver chart data...
Computing Atmospheric mass density...
Loading historical data...
Loading historical data...
Loading historical data...
Loading historical data...
Loading historical data...
Loading historical data...
Loading historical data...

Documentation

Showing up to 5 results
|